This demonstration page uses our WeatherBlox Daily Observations layout. Learn more.

Left ArrowRight Arrow

Hourly Observations for July 9, 2022

Temp ( °F °C ) Dew Point ( °F °C ) Humidity (%) Winds ( mph kmh ) Pressure ( in mb ) Visibility ( mi km ) Precip ( " mm )
12:53 am 00:53 Partly Cloudy 93 33.9 65 18.3 40 40 S 7 11 29.96 1014 10 16 0.00 0.00
1:53 am 01:53 Mostly Clear 92 33.3 64 17.8 40 40 W 6 9 29.97 1015 10 16 0.00 0.00
2:53 am 02:53 Mostly Clear 91 32.8 64 17.8 41 41 WSW 3 6 29.96 1015 10 16 0.00 0.00
3:53 am 03:53 Mostly Clear 90 32.2 65 18.3 44 44 S 5 7 29.94 1014 10 16 0.00 0.00
4:53 am 04:53 Mostly Clear 89 31.7 65 18.3 45 45 WSW 5 7 29.95 1014 10 16 0.00 0.00
5:53 am 05:53 Mostly Clear 87 30.6 65 18.3 48 48 SW 5 7 29.98 1015 10 16 0.00 0.00
6:53 am 06:53 Mostly Sunny 86 30 66 18.9 51 51 SSW 3 6 30.00 1016 10 16 0.00 0.00
7:53 am 07:53 Partly Cloudy 87 30.6 67 19.4 51 51 SSW 3 6 30.01 1016 10 16 0.00 0.00
8:53 am 08:53 Mostly Sunny 89 31.7 67 19.4 48 48 S 3 6 30.01 1016 10 16 0.00 0.00
9:53 am 09:53 Mostly Sunny 93 33.9 67 19.4 42 42 SW 6 9 30.02 1017 10 16 0.00 0.00
10:53 am 10:53 Mostly Sunny 96 35.6 68 20 40 40 WNW 7 11 30.02 1017 10 16 0.00 0.00
11:53 am 11:53 Partly Cloudy 100 37.8 70 21.1 38 38 VRB 3 6 30.02 1017 10 16 0.00 0.00
12:53 pm 12:53 Partly Cloudy 99 37.2 68 20 37 37 NW 7 11 30.01 1016 10 16 0.00 0.00
1:53 pm 13:53 Partly Cloudy 103 39.4 67 19.4 31 31 WNW 13 20 29.98 1015 10 16 0.00 0.00
2:53 pm 14:53 Partly Cloudy 103 39.4 66 18.9 30 30 undefined N/A 29.96 1014 10 16 0.00 0.00
3:53 pm 15:53 Partly Cloudy 106 41.1 68 20 29 29 NNW 10 17 29.92 1013 10 16 0.00 0.00
4:53 pm 16:53 Mostly Cloudy 104 40 67 19.4 30 30 NE 10 17 29.91 1013 10 16 0.00 0.00
5:00 pm 17:00 Mostly Cloudy with Thunderstorms 100 37.8 70 21.1 38 38 E 16 26 29.91 1013 10 16 0.00 0.00
5:37 pm 17:37 Mostly Cloudy 98 36.7 75 23.9 48 48 SE 6 9 29.90 1012 10 16 0.00 0.00
5:53 pm 17:53 Mostly Cloudy 100 37.8 72 22.2 40 40 SE 6 9 29.91 1013 10 16 0.00 0.00
6:53 pm 18:53 Mostly Cloudy 104 40 69 20.6 32 32 NNE 10 17 29.90 1013 10 16 0.00 0.00
7:53 pm 19:53 Mostly Cloudy 102 38.9 60 15.6 25 25 N 8 13 29.91 1013 10 16 0.00 0.00
8:53 pm 20:53 Mostly Cloudy 99 37.2 58 14.4 26 26 NE 5 7 29.92 1013 10 16 0.00 0.00
9:53 pm 21:53 Mostly Cloudy 98 36.7 59 15 27 27 VRB 5 7 29.92 1013 10 16 0.00 0.00
10:53 pm 22:53 Mostly Cloudy 95 35 63 17.2 35 35 ENE 3 6 29.94 1014 10 16 0.00 0.00
11:53 pm 23:53 Mostly Cloudy 93 33.9 65 18.3 40 40 NE 7 11 29.95 1014 10 16 0.00 0.00

Powered by AerisWeather